Hourly Weather Bartenevka

Today, 19 April, Monday

Time Temperature Precipitation Wind Pressure Humidity
00:00 +9°C° 0 mm 6 mps 757 mmHg 56%
01:00 +9°C° 0 mm 6 mps 757 mmHg 61%
02:00 +8°C° 0 mm 6 mps 757 mmHg 65%
03:00 +6°C° 0 mm 7 mps 757 mmHg 69%
04:00 +7°C° 0 mm 6 mps 757 mmHg 71%
05:00 +5°C° 0 mm 6 mps 757 mmHg 73%
06:00 +5°C° 0 mm 6 mps 757 mmHg 75%
07:00 +6°C° 0 mm 7 mps 758 mmHg 72%
08:00 +6°C° 0 mm 7 mps 758 mmHg 68%
09:00 +8°C° 0 mm 7 mps 758 mmHg 65%
10:00 +8°C° 0.3 mm 7 mps 758 mmHg 66%
11:00 +8°C° 0.3 mm 7 mps 758 mmHg 67%
12:00 +8°C° 0.3 mm 7 mps 758 mmHg 69%
13:00 +8°C° 1.1 mm 7 mps 758 mmHg 73%
14:00 +6°C° 1.1 mm 7 mps 759 mmHg 78%
15:00 +6°C° 1.1 mm 7 mps 759 mmHg 82%
16:00 +5°C° 0.9 mm 7 mps 759 mmHg 83%
17:00 +4°C° 0.9 mm 8 mps 759 mmHg 83%
18:00 +2°C° 0.9 mm 8 mps 760 mmHg 83%
19:00 +2°C° 0.3 mm 8 mps 760 mmHg 85%
20:00 +1°C° 0.3 mm 8 mps 760 mmHg 87%
21:00 +1°C° 0.3 mm 8 mps 760 mmHg 89%
22:00 +1°C° 0.3 mm 8 mps 760 mmHg 84%
23:00 +2°C° 0.3 mm 8 mps 761 mmHg 80%

Tomorrow, 20 April, Tuesday

Time Temperature Precipitation Wind Pressure Humidity
00:00 +2°C° 0.3 mm 8 mps 761 mmHg 76%
01:00 +2°C° 0.1 mm 8 mps 761 mmHg 71%
02:00 +1°C° 0.1 mm 8 mps 761 mmHg 66%
03:00 +1°C° 0.1 mm 8 mps 761 mmHg 61%
04:00 +1°C° 0 mm 8 mps 762 mmHg 61%
05:00 +1°C° 0 mm 8 mps 762 mmHg 61%
06:00 0°C° 0 mm 8 mps 762 mmHg 61%
07:00 +1°C° 0 mm 8 mps 763 mmHg 59%
08:00 +1°C° 0 mm 8 mps 763 mmHg 56%
09:00 +2°C° 0 mm 8 mps 763 mmHg 54%
10:00 +4°C° 0 mm 8 mps 763 mmHg 52%
11:00 +5°C° 0 mm 8 mps 763 mmHg 51%
12:00 +6°C° 0 mm 8 mps 763 mmHg 49%
13:00 +7°C° 0 mm 8 mps 763 mmHg 48%
14:00 +8°C° 0 mm 9 mps 762 mmHg 46%
15:00 +8°C° 0 mm 9 mps 762 mmHg 45%
16:00 +8°C° 0 mm 9 mps 762 mmHg 47%
17:00 +7°C° 0 mm 8 mps 762 mmHg 49%
18:00 +7°C° 0 mm 8 mps 761 mmHg 51%
19:00 +6°C° 0 mm 8 mps 761 mmHg 50%
20:00 +5°C° 0 mm 9 mps 761 mmHg 50%
21:00 +3°C° 0 mm 9 mps 761 mmHg 50%
22:00 +3°C° 0 mm 9 mps 761 mmHg 51%
23:00 +2°C° 0 mm 9 mps 761 mmHg 52%

Day after tomorrow, 21 April, Wednesday

Time Temperature Precipitation Wind Pressure Humidity
00:00 +2°C° 0 mm 9 mps 761 mmHg 53%
01:00 +1°C° 0 mm 9 mps 761 mmHg 54%
02:00 +1°C° 0 mm 8 mps 761 mmHg 55%
03:00 +1°C° 0 mm 8 mps 761 mmHg 56%
04:00 +1°C° 0.2 mm 8 mps 761 mmHg 59%
05:00 0°C° 0.2 mm 9 mps 761 mmHg 63%
06:00 0°C° 0.2 mm 9 mps 761 mmHg 66%
07:00 0°C° 1 mm 9 mps 761 mmHg 71%
08:00 0°C° 1 mm 9 mps 760 mmHg 77%
09:00 -1°C° 1 mm 9 mps 760 mmHg 82%
10:00 -1°C° 1.7 mm 9 mps 760 mmHg 84%
11:00 -1°C° 1.7 mm 9 mps 761 mmHg 87%
12:00 -1°C° 1.7 mm 8 mps 761 mmHg 90%
13:00 -1°C° 1.8 mm 8 mps 761 mmHg 91%
14:00 -1°C° 1.8 mm 8 mps 761 mmHg 92%
15:00 0°C° 1.8 mm 8 mps 761 mmHg 93%
16:00 0°C° 0.5 mm 8 mps 761 mmHg 93%
17:00 0°C° 0.5 mm 7 mps 761 mmHg 94%
18:00 +2°C° 0.5 mm 7 mps 761 mmHg 94%
19:00 +2°C° 0.3 mm 7 mps 761 mmHg 94%
20:00 +2°C° 0.3 mm 6 mps 761 mmHg 94%
21:00 +2°C° 0.3 mm 6 mps 761 mmHg 94%
22:00 +3°C° 0.2 mm 6 mps 761 mmHg 94%
23:00 +3°C° 0.2 mm 6 mps 761 mmHg 94%

22 April, Thursday

Time Temperature Precipitation Wind Pressure Humidity
00:00 +3°C° 0.2 mm 5 mps 761 mmHg 93%
01:00 +3°C° 0.5 mm 5 mps 761 mmHg 94%
02:00 +3°C° 0.5 mm 5 mps 761 mmHg 95%
03:00 +3°C° 0.5 mm 5 mps 761 mmHg 96%
04:00 +3°C° 0.4 mm 5 mps 761 mmHg 96%
05:00 +3°C° 0.4 mm 5 mps 761 mmHg 96%
06:00 +3°C° 0.4 mm 5 mps 761 mmHg 96%
07:00 +3°C° 0 mm 5 mps 762 mmHg 95%
08:00 +3°C° 0 mm 5 mps 762 mmHg 94%
09:00 +5°C° 0 mm 5 mps 762 mmHg 93%
10:00 +5°C° 0 mm 5 mps 762 mmHg 90%
11:00 +6°C° 0 mm 5 mps 762 mmHg 87%
12:00 +5°C° 0 mm 6 mps 763 mmHg 84%
13:00 +7°C° 0 mm 6 mps 763 mmHg 80%
14:00 +8°C° 0 mm 6 mps 763 mmHg 76%
15:00 +9°C° 0 mm 6 mps 763 mmHg 73%
16:00 +8°C° 0 mm 5 mps 763 mmHg 77%
17:00 +7°C° 0 mm 5 mps 763 mmHg 82%
18:00 +6°C° 0 mm 5 mps 764 mmHg 86%
19:00 +6°C° 0 mm 5 mps 764 mmHg 89%
20:00 +5°C° 0 mm 4 mps 764 mmHg 92%
21:00 +4°C° 0 mm 4 mps 764 mmHg 94%
22:00 +4°C° 0 mm 4 mps 764 mmHg 95%
23:00 +4°C° 0 mm 3 mps 764 mmHg 95%

23 April, Friday

Time Temperature Precipitation Wind Pressure Humidity
00:00 +3°C° 0 mm 3 mps 764 mmHg 96%
01:00 +3°C° 0 mm 3 mps 764 mmHg 96%
02:00 +4°C° 0 mm 2 mps 764 mmHg 95%
03:00 +4°C° 0 mm 2 mps 764 mmHg 95%
04:00 +4°C° 0 mm 2 mps 764 mmHg 94%
05:00 +4°C° 0 mm 2 mps 764 mmHg 92%
06:00 +5°C° 0 mm 2 mps 764 mmHg 91%
07:00 +6°C° 0 mm 2 mps 764 mmHg 84%
08:00 +8°C° 0 mm 2 mps 764 mmHg 76%
09:00 +10°C° 0 mm 2 mps 764 mmHg 69%
10:00 +11°C° 0 mm 3 mps 764 mmHg 65%
11:00 +12°C° 0 mm 3 mps 763 mmHg 62%
12:00 +13°C° 0 mm 3 mps 763 mmHg 59%
13:00 +13°C° 0 mm 3 mps 763 mmHg 62%
14:00 +12°C° 0 mm 4 mps 763 mmHg 64%
15:00 +12°C° 0 mm 4 mps 762 mmHg 67%
16:00 +12°C° 0 mm 4 mps 762 mmHg 69%
17:00 +11°C° 0 mm 3 mps 762 mmHg 70%
18:00 +11°C° 0 mm 3 mps 762 mmHg 72%
19:00 +10°C° 0 mm 3 mps 762 mmHg 74%
20:00 +10°C° 0 mm 3 mps 761 mmHg 76%
21:00 +9°C° 0 mm 3 mps 761 mmHg 78%
22:00 +9°C° 0 mm 3 mps 761 mmHg 81%
23:00 +9°C° 0 mm 2 mps 760 mmHg 83%

24 April, Saturday

Time Temperature Precipitation Wind Pressure Humidity
00:00 +8°C° 0 mm 2 mps 760 mmHg 86%
01:00 +8°C° 0 mm 2 mps 760 mmHg 88%
02:00 +8°C° 0 mm 2 mps 759 mmHg 90%
03:00 +8°C° 0 mm 2 mps 759 mmHg 92%
04:00 +8°C° 0.1 mm 2 mps 759 mmHg 92%
05:00 +8°C° 0.1 mm 2 mps 758 mmHg 92%
06:00 +8°C° 0.1 mm 1 mps 758 mmHg 92%
07:00 +9°C° 0.1 mm 1 mps 758 mmHg 90%
08:00 +9°C° 0.1 mm 1 mps 758 mmHg 88%
09:00 +9°C° 0.1 mm 1 mps 758 mmHg 86%
10:00 +9°C° 0 mm 1 mps 757 mmHg 84%
11:00 +10°C° 0 mm 1 mps 757 mmHg 83%
12:00 +10°C° 0 mm 1 mps 757 mmHg 81%
13:00 +10°C° 0 mm 1 mps 757 mmHg 79%
14:00 +10°C° 0 mm 1 mps 757 mmHg 77%
15:00 +10°C° 0 mm 0 mps 757 mmHg 76%
16:00 +10°C° 0 mm 0 mps 756 mmHg 76%
17:00 +10°C° 0 mm 0 mps 756 mmHg 77%
18:00 +10°C° 0 mm 0 mps 756 mmHg 78%
19:00 +10°C° 0 mm 1 mps 756 mmHg 82%
20:00 +9°C° 0 mm 1 mps 756 mmHg 85%
21:00 +7°C° 0 mm 2 mps 756 mmHg 89%
22:00 +7°C° 0 mm 2 mps 756 mmHg 90%
23:00 +6°C° 0 mm 2 mps 756 mmHg 91%
Show more